Regional Weather Roundup
Issued by NWS

Home | Current Version | Previous Version | Graphics & Text | Print | Product List | Glossary On
Versions: 1 2 3 4 5 6 7 8 9 10 11 12 13 14 15 16 17 18 19 20 21 22 23 24 25 26 27 28
000
ASUS45 KBOU 251607
RWRCO

WEATHER ROUNDUP FOR COLORADO
NATIONAL WEATHER SERVICE DENVER/BOULDER CO
1000 AM MDT THU AUG 25 2016

NOTE: "FAIR" INDICATES FEW OR NO CLOUDS BELOW 12000 FEET WITH NO
SIGNIFICANT WEATHER AND/OR OBSTRUCTIONS TO VISIBILITY.

COZ001>005-013-030-031-251700-
...NORTHWEST COLORADO...

CITY           SKY/WX    TMP DP  RH WIND       PRES   REMARKS
CRAIG          FAIR      57  39  51 VRB3      30.29F
HAYDEN         FAIR      55  36  47 CALM      30.30F
MEEKER         FAIR      56  43  61 CALM      30.29S
MOUNT WERNER   NOT AVBL
STEAMBOAT SPGS FAIR      56  38  51 CALM      30.30F
WALDEN         FAIR      55  36  47 S5        30.36F
$$

COZ006>008-011-251700-
...WEST CENTRAL VALLEYS...

CITY           SKY/WX    TMP DP  RH WIND       PRES   REMARKS
GRAND JUNCTION PTSUNNY   62  45  53 SW7       30.22R
MONTROSE       FAIR      65  42  43 VRB5      30.26S
EAGLE          SUNNY     61  39  44 CALM      30.31F
RIFLE          FAIR      62  43  49 CALM      30.24S
DELTA          FAIR      67  44  43 E5        30.23F
NUCLA          FAIR      64  43  45 CALM      30.29S
$$

COZ017>023-064>068-251700-
...SOUTHWEST COLORADO...

CITY           SKY/WX    TMP DP  RH WIND       PRES   REMARKS
DURANGO        FAIR      62  47  57 SE6       30.32S
CORTEZ         FAIR      67  49  52 CALM      30.26S
PAGOSA SPRINGS FAIR      60  45  57 CALM      30.39S
TELLURIDE      FAIR      58  39  48 SE5       30.46S
WOLF CREEK PAS FAIR      43  37  81 SW8       30.64R
$$

COZ009-010-012-014-032>034-037-058>063-251700-
...CENTRAL COLORADO...

CITY           SKY/WX    TMP DP  RH WIND       PRES   REMARKS
ASPEN          FAIR      61  34  36 CALM      30.32F
BUENA VISTA    FAIR      55  42  63 CALM      30.39F
COPPER MTN     FAIR      50  30  46 W9        30.59R
BERTHOUD PASS  FAIR      37  27  65 NW12G18   30.60S
COTTONWOOD PAS FAIR      54  45  71 E6        30.48R
GUNNISON       FAIR      54  39  58 CALM      30.41F
KREMMLING      FAIR      54  37  54 CALM      30.36F
LEADVILLE      FAIR      50  37  61 VRB3      30.45F
MONARCH PASS   FAIR      43  34  70 W12G18    30.70R
SALIDA         FAIR      57  46  65 N3        30.44F
SUNLIGHT       FAIR      54  37  54 NE6       30.54R
WILKERSON PASS FAIR      46  32  57 CALM      30.58R
$$

COZ069>075-251700-
...SAN LUIS VALLEY/SANGRE DE CRISTO MOUNTAINS...

CITY           SKY/WX    TMP DP  RH WIND       PRES   REMARKS
ALAMOSA        FAIR      56  45  66 E5        30.39S
LA VETA PASS   FAIR      52  43  71 W3        30.51R
SAGUACHE       FAIR      55  43  62 SE3       30.41R
$$

COZ035-036-038>040-251700-
...NORTHERN COLORADO FRONT RANGE...

CITY           SKY/WX    TMP DP  RH WIND       PRES   REMARKS
DENVER INTL AP PTSUNNY   54  45  71 NW10      30.31R
DMNS CITY PARK   N/A     58  44  59 NW8G15    30.31S
AURORA         MOSUNNY   56  47  72 NW8       30.32R
FRONT RANGE AP PTSUNNY   55  50  82 W8        30.32R
ERIE MUNI ARPT FAIR      60  45  59 N12       30.31R
BOULDER MUN AP FAIR      61  46  59 N9        30.31S
CENTENNIAL     FAIR      59  46  62 N8        30.32R
BROOMFIELD     PTSUNNY   57  46  67 N12       30.33R
FORT COLLINS   FAIR      57  45  62 N13       30.31S
LONGMONT       FAIR      64  46  52 N10       30.32S
$$

COZ041-046-047-076>085-087-088-251700-
...PIKES PEAK/PALMER DIVIDE AND SOUTHERN FOOTHILLS...

CITY           SKY/WX    TMP DP  RH WIND       PRES   REMARKS
COLO. SPRINGS  FAIR      62  44  51 S7        30.32R
A. F. ACADEMY  FAIR      60  46  59 VRB1      30.32R
SCHRIEVER AFB  NOT AVBL
ELLICOTT       LGT SNOW N/A N/A N/A S6        30.31
FALCON         FAIR      62  44  51 S8        30.36R
FORT CARSON    NOT AVBL
LIMON          FAIR      65  39  38 CALM      30.29R
MONUMENT HILL  FAIR      59  43  55 N6        30.37R
TRINIDAD       FAIR      64  47  53 VRB3      30.30R
$$

COZ042>045-048>051-090-091-251700-
...NORTHEAST COLORADO...

CITY           SKY/WX    TMP DP  RH WIND       PRES   REMARKS
GREELEY ARPT   FAIR      63  39  42 NE7       30.30S
AKRON          FAIR      65  42  43 E8        30.28S
BURLINGTON     FAIR      65  47  52 E7        30.27S
WRAY           FAIR      70  43  37 E8        30.27
STERLING       FAIR      63  45  51 NE9       30.28S
HOLYOKE        FAIR      70  46  43 E12       30.28R
FORT MORGAN    FAIR      65  41  41 E8        30.30R
$$

COZ086-089-092>099-251700-
...SOUTHEAST COLORADO...

CITY           SKY/WX    TMP DP  RH WIND       PRES   REMARKS
PUEBLO         FAIR      65  45  48 SE8       30.26S
LA JUNTA       FAIR      67  50  54 E7        30.25R
LAMAR          FAIR      66  55  67 E5        30.22S
SPRINGFIELD      N/A     64  56  75 N5        30.25R
$$




USA.gov is the U.S. government's official web portal to all federal, state and local government web resources and services.